Temp
68 68 71 73 72 72 72 72 71 72 71 71 70 70 70 72 72 72 73 72 72 73 72 71 71 71 71 71 72 72 72 71 72 71 71 71 72 72 73 74 73 73 75
67 67 69 70 71 70 71 71 72 71 72 72 72 72 71 72 73 73 72 72 73 72 71 71 71 71 70 70 70 72 71 71 70 70 67 67 71 72 73 73 73 73 75
67 67 67 68 70 70 71 71 71 72 72 72 71 72 72 72 72 71 71 71 72 73 72 72 71 71 70 70 70 71 71 70 72 72 70 64 66 67 70 71 72 73 72
67 68 67 67 69 70 72 72 71 70 71 72 71 71 70 70 71 71 70 71 72 72 72 73 72 71 72 71 71 73 72 71 70 71 72 71 70 67 67 69 71 72 73
66 66 67 69 70 72 72 72 71 70 72 71 72 71 70 71 72 71 70 70 71 73 73 73 72 71 72 72 72 73 72 72 70 70 70 70 69 69 68 66 68 72 72
68 69 70 70 70 72 73 73 71 70 72 72 72 72 71 71 71 71 71 70 71 72 73 73 72 72 72 72 73 73 72 72 72 70 70 70 69 67 67 66 67 68 73
68 68 68 68 68 70 71 72 71 70 72 72 72 72 72 71 71 71 72 71 70 70 71 72 72 72 73 73 72 72 73 73 72 72 70 70 69 70 69 68 68 67 69
69 69 70 70 70 71 72 73 72 71 72 72 72 72 73 71 71 72 72 71 71 72 72 73 73 73 73 73 73 73 74 74 73 73 72 72 71 70 70 70 68 67 67
71 71 71 71 70 71 71 73 72 71 72 72 73 73 73 72 71 72 72 72 72 73 73 73 73 73 73 73 73 73 73 74 74 73 73 72 73 72 72 70 70 69 66
72 72 72 72 72 73 72 74 73 73 73 73 73 73 73 74 73 73 72 72 74 74 73 72 74 74 73 74 73 73 73 73 74 75 73 73 73 73 72 71 70 70 71
73 73 74 74 74 75 73 74 73 72 73 73 73 74 75 74 74 74 74 75 75 74 74 73 73 73 74 74 73 73 74 73 73 74 74 74 75 75 73 72 71 70 69
75 75 73 72 72 72 71 72 72 72 72 72 72 74 75 74 73 71 72 73 72 72 73 74 74 72 72 74 73 73 75 73 73 74 73 73 75 74 73 73 72 71 71
71 71 71 70 70 70 70 72 72 71 72 73 72 72 71 70 69 70 70 71 71 70 71 71 71 72 73 74 73 73 73 72 73 73 73 73 74 73 74 73 73 72 73
69 70 69 69 69 70 70 71 72 72 72 72 70 69 69 69 69 68 69 69 69 69 69 70 70 71 71 71 70 72 73 73 74 73 73 74 73 73 73 73 73 74 72
67 69 68 67 67 66 67 69 70 70 69 68 69 67 67 67 68 67 67 68 68 68 68 68 69 70 70 72 69 69 70 70 70 72 72 74 74 71 71 72 73 72 71
68 69 69 67 66 66 66 67 67 67 68 68 67 66 66 66 66 66 65 65 65 65 66 66 67 67 71 65 67 69 69 68 68 68 69 70 71 71 68 68 68 70 70
67 67 66 66 66 66 67 66 66 67 66 66 66 66 65 65 64 64 64 63 63 64 64 64 65 64 65 63 64 68 68 67 66 67 67 69 74 69 69 68 66 67 66
66 66 66 66 67 67 67 67 67 67 67 65 65 64 64 63 63 63 63 62 62 62 62 62 62 62 62 61 62 65 66 65 65 66 66 66 66 64 64 66 66 67 68
67 67 67 66 67 67 67 67 66 66 65 64 64 64 64 62 62 61 61 62 61 61 61 62 61 58 57 59 60 62 63 63 63 64 65 65 63 60 60 62 63 64 67
68 67 67 68 66 66 67 66 66 64 64 64 63 62 62 62 61 61 61 61 61 61 62 60 59 58 56 57 57 59 61 59 60 61 62 62 62 58 57 59 59 61 64
67 68 67 67 67 67 66 64 65 64 64 63 62 61 61 61 61 60 61 61 60 59 60 59 57 57 57 55 55 55 56 57 57 58 59 60 57 55 54 54 58 59 62
66 68 67 66 68 68 66 65 64 63 63 62 61 61 61 62 61 59 59 59 59 57 57 57 57 56 55 54 54 54 54 56 55 55 57 57 54 52 53 56 55 55 57
64 65 64 64 65 66 66 64 62 63 61 60 60 60 60 60 60 59 58 58 57 57 57 57 55 54 54 53 52 52 54 55 55 56 56 55 53 54 56 55 56 58 59
63 63 63 63 62 64 64 64 63 62 61 59 58 58 59 59 59 60 59 58 57 56 56 55 54 52 52 52 54 55 55 54 55 55 58 56 55 55 55 56 56 57 56
63 63 62 61 61 62 63 63 62 62 60 58 58 58 58 58 58 57 56 58 57 57 56 55 54 52 50 51 52 50 52 53 53 55 56 55 54 53 53 53 54 54 53
62 61 61 61 60 61 61 61 61 61 58 57 57 57 57 57 57 56 54 49 49 50 49 48 52 53 50 48 48 48 45 46 48 54 53 52 52 51 52 51 52 53 51
MSLP
1012.02 1012.31 1012.37 1012.57 1012.93 1013.23 1013.53 1014.03 1014.45 1014.82 1015.23 1015.58 1015.82 1016.17 1016.29 1016.42 1016.38 1016.32 1016.48 1016.66 1016.80 1016.96 1017.20 1017.55 1017.83 1018.00 1018.31 1018.46 1018.72 1018.73 1018.76 1018.80 1018.80 1018.61 1018.65 1018.68 1018.68 1018.83 1018.97 1019.01 1019.34 1019.58 1019.71
1011.91 1012.10 1012.23 1012.49 1012.88 1013.11 1013.40 1013.80 1014.03 1014.47 1014.76 1015.00 1015.39 1015.63 1015.90 1015.98 1015.93 1015.87 1016.06 1016.33 1016.59 1016.86 1017.04 1017.20 1017.64 1017.71 1018.17 1018.36 1018.54 1018.73 1018.79 1018.82 1018.70 1018.68 1018.84 1018.80 1018.92 1018.74 1018.77 1018.91 1019.12 1019.32 1019.44
1011.91 1012.03 1012.08 1012.18 1012.64 1013.06 1013.24 1013.52 1013.88 1014.19 1014.50 1014.92 1015.51 1015.73 1015.81 1015.98 1015.86 1015.98 1016.17 1016.22 1016.28 1016.38 1016.70 1016.97 1017.20 1017.46 1017.82 1018.08 1018.33 1018.62 1018.81 1018.83 1018.71 1018.52 1018.62 1018.88 1018.89 1018.88 1018.83 1018.81 1018.88 1019.04 1019.26
1011.56 1011.79 1011.82 1011.99 1012.30 1012.88 1013.10 1013.39 1013.74 1014.18 1014.51 1014.85 1015.28 1015.62 1015.82 1015.93 1015.84 1016.03 1016.10 1016.16 1016.08 1016.24 1016.58 1016.64 1016.86 1017.18 1017.44 1017.80 1018.01 1018.40 1018.60 1018.73 1018.67 1018.60 1018.58 1018.65 1018.70 1018.83 1018.92 1018.72 1018.64 1018.76 1018.83
1011.22 1011.62 1011.67 1011.74 1012.08 1012.50 1012.86 1013.15 1013.60 1013.94 1014.20 1014.64 1015.01 1015.35 1015.56 1015.64 1015.66 1016.00 1016.04 1016.20 1016.05 1016.14 1016.32 1016.42 1016.64 1017.01 1017.26 1017.47 1017.67 1018.06 1018.32 1018.52 1018.52 1018.46 1018.60 1018.69 1018.75 1018.77 1018.84 1018.81 1018.69 1018.51 1018.42
1010.88 1011.38 1011.63 1011.70 1011.94 1012.36 1012.69 1013.01 1013.34 1013.60 1013.96 1014.28 1014.58 1014.89 1015.32 1015.59 1015.70 1015.75 1015.98 1016.01 1015.83 1015.83 1015.86 1016.03 1016.28 1016.52 1016.87 1017.10 1017.27 1017.68 1017.93 1018.14 1018.32 1018.47 1018.48 1018.52 1018.61 1018.66 1018.79 1018.97 1018.76 1018.66 1018.29
1010.43 1010.97 1011.34 1011.64 1011.86 1012.20 1012.51 1012.67 1012.99 1013.37 1013.67 1014.00 1014.31 1014.66 1014.98 1015.33 1015.43 1015.47 1015.46 1015.61 1015.63 1015.57 1015.70 1015.71 1015.94 1016.17 1016.32 1016.58 1016.86 1017.24 1017.48 1017.68 1017.94 1018.14 1018.33 1018.44 1018.46 1018.55 1018.65 1018.78 1018.76 1018.78 1018.47
1010.00 1010.46 1010.67 1011.13 1011.34 1011.64 1012.00 1012.31 1012.69 1012.97 1013.26 1013.58 1013.94 1014.39 1014.80 1014.94 1015.14 1015.24 1015.27 1015.02 1015.02 1015.00 1015.23 1015.39 1015.44 1015.64 1015.91 1016.24 1016.56 1016.92 1017.18 1017.43 1017.62 1017.78 1017.92 1017.98 1018.14 1018.33 1018.40 1018.43 1018.64 1018.84 1018.70
1009.29 1009.72 1010.09 1010.48 1010.69 1011.06 1011.45 1011.83 1012.30 1012.67 1012.97 1013.34 1013.82 1014.15 1014.40 1014.67 1014.67 1014.64 1014.71 1014.72 1014.60 1014.70 1014.72 1014.94 1015.25 1015.38 1015.54 1015.86 1016.32 1016.66 1016.85 1017.04 1017.21 1017.40 1017.53 1017.63 1017.67 1017.86 1018.00 1018.16 1018.25 1018.36 1018.72
1008.49 1009.08 1009.39 1009.80 1010.16 1010.55 1011.01 1011.52 1011.96 1012.31 1012.55 1013.03 1013.46 1013.77 1014.04 1014.16 1014.28 1014.27 1014.42 1014.47 1014.38 1014.28 1014.55 1014.71 1014.98 1015.24 1015.48 1015.72 1016.02 1016.31 1016.52 1016.75 1016.84 1017.04 1017.14 1017.19 1017.22 1017.31 1017.46 1017.69 1017.89 1018.01 1018.18
1008.00 1008.31 1008.66 1009.25 1009.50 1010.04 1010.70 1011.14 1011.64 1012.01 1012.36 1012.69 1013.03 1013.38 1013.59 1013.93 1014.09 1014.37 1014.44 1014.40 1014.42 1014.32 1014.48 1014.78 1015.02 1015.14 1015.32 1015.46 1015.70 1015.92 1016.15 1016.33 1016.50 1016.71 1016.83 1016.78 1016.81 1016.83 1017.04 1017.22 1017.37 1017.54 1017.83
1007.68 1008.07 1008.44 1008.96 1009.32 1009.74 1010.44 1010.75 1011.44 1011.76 1012.01 1012.33 1012.80 1013.24 1013.72 1014.02 1014.35 1014.70 1014.68 1014.63 1014.68 1014.64 1014.68 1014.83 1015.06 1015.30 1015.43 1015.46 1015.64 1015.68 1015.79 1015.98 1016.03 1016.09 1016.41 1016.37 1016.37 1016.45 1016.52 1016.71 1016.78 1016.92 1017.12
1007.71 1008.21 1008.80 1009.24 1009.55 1009.80 1010.42 1010.89 1011.16 1011.75 1012.02 1012.29 1012.81 1013.45 1014.07 1014.42 1014.82 1015.15 1015.34 1015.22 1015.16 1015.14 1015.12 1015.14 1015.28 1015.32 1015.36 1015.42 1015.58 1015.61 1015.66 1015.85 1015.78 1015.82 1015.90 1015.95 1016.09 1015.96 1016.02 1016.20 1016.26 1016.33 1016.43
1007.42 1007.84 1008.64 1009.16 1009.65 1010.00 1010.45 1010.84 1011.24 1011.42 1011.83 1012.27 1012.79 1013.52 1014.16 1014.68 1015.18 1015.39 1015.62 1015.69 1015.55 1015.46 1015.50 1015.54 1015.55 1015.49 1015.55 1015.65 1015.74 1015.70 1015.68 1015.58 1015.57 1015.59 1015.59 1015.61 1015.64 1015.63 1015.65 1015.80 1015.82 1015.79 1015.88
1007.66 1007.85 1008.40 1009.16 1009.99 1010.59 1011.25 1011.81 1011.69 1011.78 1011.96 1012.68 1012.87 1013.47 1013.98 1014.65 1015.17 1015.55 1015.80 1015.94 1016.02 1016.01 1015.89 1015.80 1015.78 1015.80 1015.91 1016.04 1015.95 1015.86 1015.83 1015.81 1015.77 1015.69 1015.65 1015.59 1015.58 1015.58 1015.54 1015.61 1015.52 1015.56 1015.60
1007.36 1007.70 1008.29 1009.56 1010.68 1011.31 1011.84 1012.59 1013.16 1013.56 1013.53 1013.92 1013.19 1013.46 1014.12 1014.86 1015.21 1015.73 1016.20 1016.40 1016.48 1016.48 1016.35 1016.28 1016.28 1016.39 1016.40 1016.35 1016.17 1015.99 1015.93 1015.88 1015.88 1015.88 1015.82 1015.74 1015.61 1015.56 1015.59 1015.56 1015.46 1015.42 1015.32
1007.12 1007.74 1008.33 1009.22 1010.13 1010.74 1011.87 1013.74 1013.86 1014.46 1014.30 1014.20 1014.95 1014.87 1014.46 1015.06 1015.46 1015.88 1016.34 1016.66 1016.89 1016.86 1016.81 1016.74 1016.73 1016.87 1016.80 1016.51 1016.36 1016.28 1016.23 1016.19 1016.19 1016.16 1016.04 1015.81 1015.67 1015.74 1015.68 1015.52 1015.37 1015.24 1015.13
1007.77 1007.88 1008.50 1009.51 1010.01 1009.92 1009.50 1011.86 1013.74 1015.51 1015.61 1015.40 1014.77 1015.22 1015.20 1015.52 1015.96 1016.30 1016.41 1016.81 1017.09 1017.14 1017.14 1017.00 1017.06 1017.24 1017.29 1016.89 1016.64 1016.52 1016.40 1016.31 1016.25 1016.21 1016.17 1015.97 1015.93 1016.09 1015.96 1015.75 1015.56 1015.34 1015.04
1007.25 1007.86 1008.62 1009.17 1009.83 1010.25 1009.07 1010.54 1013.02 1014.89 1015.44 1015.41 1014.78 1015.28 1015.54 1015.80 1016.37 1016.41 1016.69 1017.06 1017.18 1017.30 1017.26 1017.24 1017.28 1017.59 1017.92 1017.64 1017.24 1017.03 1017.10 1016.96 1016.81 1016.62 1016.43 1016.32 1016.39 1016.35 1016.19 1015.97 1015.70 1015.36 1014.81
1007.46 1007.82 1008.34 1009.06 1009.54 1010.29 1010.18 1011.11 1012.50 1013.78 1014.75 1015.32 1015.02 1015.15 1015.62 1015.99 1016.38 1016.49 1016.83 1017.21 1017.27 1017.48 1017.41 1017.64 1018.00 1018.14 1018.17 1018.31 1018.05 1017.72 1017.52 1017.34 1017.24 1017.00 1016.88 1016.75 1016.56 1016.32 1016.22 1016.30 1015.90 1015.29 1014.61
1007.80 1008.26 1008.68 1008.99 1009.40 1010.09 1010.12 1011.30 1012.42 1013.19 1014.26 1014.98 1014.87 1015.11 1015.68 1016.14 1016.46 1016.72 1016.96 1017.44 1017.52 1017.62 1017.94 1017.86 1018.16 1018.46 1018.58 1018.55 1018.29 1018.22 1018.06 1017.71 1017.58 1017.25 1016.88 1016.98 1016.83 1016.54 1016.17 1015.92 1015.77 1015.36 1014.84
1008.51 1009.01 1009.15 1009.64 1009.71 1010.31 1010.98 1011.88 1012.63 1013.11 1014.10 1014.50 1014.90 1015.34 1015.88 1016.08 1016.40 1016.93 1017.41 1017.60 1017.72 1017.75 1018.06 1018.31 1018.41 1018.56 1018.92 1018.75 1018.57 1018.36 1018.17 1017.84 1017.52 1017.69 1017.41 1016.96 1016.87 1016.46 1016.10 1015.88 1015.51 1015.02 1014.66
1008.75 1009.27 1009.73 1010.18 1010.67 1011.15 1011.61 1011.82 1012.92 1013.11 1013.74 1014.39 1015.00 1015.55 1015.88 1016.16 1016.64 1017.14 1017.50 1017.68 1017.80 1017.70 1018.14 1018.38 1018.44 1018.42 1018.88 1018.93 1018.67 1018.29 1018.07 1017.80 1017.54 1017.53 1017.21 1017.02 1016.63 1016.76 1016.33 1016.21 1015.78 1015.26 1014.97
1008.98 1009.44 1010.03 1010.75 1011.21 1011.55 1011.90 1012.25 1013.13 1013.20 1013.79 1014.06 1014.64 1015.22 1015.73 1016.37 1016.88 1017.15 1017.59 1017.80 1018.06 1018.30 1018.27 1018.40 1018.50 1018.66 1018.88 1018.83 1018.62 1018.49 1018.10 1017.81 1017.48 1017.29 1017.10 1017.29 1017.11 1016.92 1017.06 1016.43 1016.16 1015.94 1015.68
1008.64 1009.15 1009.92 1010.32 1010.90 1011.42 1011.70 1011.90 1012.72 1012.86 1013.36 1014.07 1014.72 1015.34 1016.03 1016.63 1017.08 1017.56 1017.89 1018.06 1018.19 1017.95 1018.10 1018.48 1018.69 1018.96 1019.30 1019.35 1019.14 1018.83 1018.93 1018.60 1017.94 1017.41 1017.54 1017.16 1017.10 1017.25 1017.27 1017.04 1016.75 1016.39 1016.11
1008.65 1008.76 1009.49 1010.48 1010.94 1011.59 1011.91 1012.00 1012.38 1012.74 1013.50 1014.33 1015.02 1015.72 1016.23 1016.72 1017.32 1017.86 1018.21 1018.10 1018.06 1017.78 1017.95 1018.24 1018.58 1019.27 1019.35 1019.31 1019.08 1019.06 1018.62 1018.67 1018.46 1017.79 1017.86 1017.62 1017.58 1017.54 1017.75 1017.44 1017.05 1016.73 1016.54
Wind_Speed
5 6 6 7 7 6 12 14 13 8 5 2 3 2 3 2 3 4 5 6 5 6 6 4 4 4 4 3 2 1 1 0 1 0 0 1 2 5 5 4 5 7 9
5 5 6 5 6 6 8 9 11 8 7 3 2 3 3 3 2 2 4 3 4 4 5 6 5 5 3 3 3 2 1 1 0 1 1 1 0 1 4 5 5 7 7
9 9 8 7 5 6 8 8 7 7 4 5 3 2 2 0 1 2 0 3 5 4 5 6 5 5 4 3 2 2 2 1 1 2 1 1 2 0 1 4 5 6 6
5 8 7 6 6 6 5 6 5 5 5 6 3 4 3 3 2 1 2 3 6 5 6 5 5 4 4 4 3 3 2 2 2 0 1 1 1 1 1 1 2 4 5
7 8 8 8 5 6 6 5 5 5 6 6 6 5 4 3 0 1 2 4 4 5 7 6 5 5 4 4 4 3 3 2 2 2 1 1 0 2 1 2 2 1 3
5 6 6 6 5 4 4 5 6 6 5 5 7 7 6 4 3 2 3 3 3 4 6 7 6 6 6 6 4 4 4 3 4 2 2 1 1 0 1 1 2 1 2
6 7 8 8 7 7 8 6 7 6 5 6 5 6 6 6 6 5 3 3 3 3 6 7 6 5 6 6 5 5 5 4 3 3 3 3 2 2 1 1 0 1 2
7 8 9 9 9 9 8 8 7 6 6 6 6 4 5 4 4 3 4 4 3 4 5 6 7 7 6 6 5 4 4 4 4 6 4 3 4 4 3 3 2 1 2
9 10 8 7 8 8 9 9 7 5 5 6 5 5 5 5 5 3 5 4 3 3 4 6 6 6 6 6 5 4 6 5 5 5 5 4 3 4 4 3 3 3 1
10 8 8 9 7 7 6 7 8 8 7 6 6 4 3 3 3 3 5 2 2 1 2 4 6 6 6 6 6 5 5 5 5 5 5 5 3 4 4 4 4 3 3
11 10 9 8 9 8 8 8 7 7 7 6 5 4 3 4 3 3 2 3 3 3 3 2 2 4 4 5 6 6 6 6 6 5 6 7 5 4 4 4 4 5 5
13 9 7 7 7 7 7 8 5 6 6 5 4 4 4 5 6 5 4 5 5 5 4 4 3 1 2 3 5 5 5 7 7 7 6 7 4 6 5 4 6 6 7
7 7 6 7 7 7 6 7 6 5 5 6 7 6 6 6 6 6 5 5 5 5 5 5 5 4 4 2 2 4 4 5 6 6 6 6 5 6 4 5 5 4 5
9 9 7 7 5 4 6 7 7 7 6 8 9 9 7 7 6 5 5 5 4 5 5 4 4 4 5 5 5 5 3 2 3 3 4 5 5 5 4 4 5 5 5
7 9 8 7 5 7 7 5 3 6 8 9 10 10 9 7 6 5 5 5 5 5 4 4 4 4 5 5 4 4 3 4 4 4 3 2 2 3 4 2 3 3 3
9 9 7 11 11 9 9 10 7 6 4 3 9 9 9 7 7 6 5 5 5 5 5 6 6 6 5 8 7 5 4 4 3 4 5 4 5 4 5 3 6 5 4
8 9 11 15 15 15 12 11 9 4 4 7 4 3 8 7 6 6 5 4 4 3 4 4 5 5 5 10 8 7 4 4 5 5 6 6 4 6 5 5 5 4 5
6 10 12 15 16 18 20 16 6 2 2 4 6 5 6 7 5 4 5 4 2 2 2 3 4 6 6 9 9 8 5 4 5 6 6 5 4 7 8 6 5 5 5
10 10 9 12 12 11 12 13 9 5 4 3 6 5 5 6 4 5 4 2 2 1 1 1 6 8 8 14 13 8 5 5 5 5 5 5 4 6 10 7 7 8 8
11 13 13 11 12 10 13 12 10 7 6 6 5 6 5 6 4 4 4 1 1 2 5 8 7 9 8 11 13 9 3 4 5 6 6 7 7 5 7 7 6 8 9
12 12 12 12 10 8 11 14 11 13 7 6 5 6 5 5 4 4 3 3 4 5 5 8 6 7 6 7 10 9 4 2 4 4 5 6 12 12 13 9 7 8 8
8 9 9 8 8 9 11 10 11 9 9 7 6 6 5 4 4 5 3 3 3 5 4 5 4 5 5 9 8 8 6 4 2 4 4 5 11 10 10 8 9 10 9
9 8 7 7 6 9 10 13 9 10 9 8 7 5 5 4 4 4 3 2 3 4 3 3 3 3 3 4 9 8 9 7 3 3 4 6 8 9 8 13 14 10 7
9 7 10 8 6 6 7 9 9 9 8 8 6 5 5 4 2 2 2 3 2 3 3 3 3 3 3 5 5 6 6 7 5 5 6 7 8 9 10 9 9 8 8
8 10 10 10 10 9 10 11 8 8 7 6 5 5 3 3 3 2 1 2 2 3 3 2 2 2 2 3 5 4 6 5 4 4 5 6 7 7 7 7 8 8 7
6 9 10 11 10 9 8 8 7 8 8 6 4 3 4 3 3 4 3 8 4 5 6 9 5 1 2 3 3 4 6 7 8 5 5 6 6 6 6 7 7 7 9
Wind_Direction
177 185 177 170 167 164 161 178 196 206 166 161 160 178 188 193 220 212 211 212 206 202 174 193 205 190 211 212 236 297 301 292 290 342 103 115 128 173 174 175 195 206 207
193 199 172 160 158 163 179 177 188 182 186 159 140 152 166 203 199 204 223 208 217 196 190 177 198 191 203 233 241 243 329 305 247 125 65 15 160 101 167 172 187 208 202
205 200 184 174 169 164 176 194 198 186 177 147 115 92 77 335 205 232 127 230 224 191 181 192 192 187 187 213 222 235 214 284 226 233 139 141 226 307 142 190 204 192 204
196 214 174 177 181 184 177 190 199 183 191 169 155 172 184 209 220 138 135 225 224 199 190 190 192 198 188 206 202 210 219 224 255 314 167 138 146 151 349 228 224 206 219
188 205 192 188 184 179 181 187 198 205 191 173 177 185 194 229 280 166 164 212 217 205 196 200 194 199 206 219 205 200 197 204 238 209 190 147 135 117 129 304 317 257 235
192 207 201 175 178 164 179 185 190 217 199 177 179 185 193 218 249 252 223 206 209 197 210 202 198 198 201 211 217 210 209 228 242 213 219 206 157 153 165 219 281 277 286
187 188 184 190 178 184 195 189 187 213 194 193 188 189 202 210 232 245 240 215 207 201 208 207 205 205 204 207 207 207 217 220 228 206 208 216 217 165 165 175 153 298 307
186 197 195 191 189 189 187 186 182 204 184 192 202 194 204 208 222 241 268 237 229 214 178 202 199 206 202 210 206 216 217 213 227 229 216 217 204 194 195 173 148 21 293
192 201 188 197 182 178 186 182 176 194 186 190 189 203 206 212 232 247 263 266 228 215 208 192 197 203 202 204 197 215 226 215 224 230 216 220 222 204 205 189 181 155 232
181 198 182 190 188 185 174 167 173 185 184 185 189 203 196 211 220 225 275 288 303 11 162 180 183 188 199 197 196 211 226 225 231 232 221 225 226 214 205 205 198 197 192
194 192 194 188 187 173 166 175 175 170 173 177 169 181 198 186 193 159 166 81 67 47 52 130 186 198 195 200 202 215 214 219 232 231 233 241 229 236 220 200 202 206 190
197 186 184 175 186 180 158 167 171 171 176 166 162 149 115 113 100 80 70 70 71 50 56 60 81 152 243 218 228 240 234 225 224 230 223 241 239 242 237 219 215 211 203
160 145 152 179 201 186 160 164 157 159 155 135 125 113 100 93 86 77 66 64 72 63 57 64 61 49 41 64 219 227 245 250 246 240 230 245 232 241 233 231 242 233 223
173 165 164 182 183 151 145 140 146 150 140 128 121 114 111 102 95 87 71 55 56 61 55 56 59 59 60 52 39 43 33 327 296 263 248 247 246 257 262 255 252 254 247
180 181 176 160 124 89 65 40 100 143 135 132 125 127 118 108 102 87 78 72 57 55 51 52 47 61 63 46 42 35 35 29 13 17 14 25 349 289 277 266 277 260 257
189 192 156 100 93 92 85 78 60 25 28 51 123 121 109 111 103 93 82 72 63 50 60 56 63 52 48 2 19 41 37 30 15 346 338 333 324 349 3 323 268 252 248
167 152 139 132 121 107 93 33 49 38 74 98 86 85 108 105 99 102 100 82 65 58 52 44 40 42 26 10 17 30 25 14 6 354 342 332 342 358 338 325 308 276 253
150 152 143 132 136 135 120 113 71 18 127 160 118 108 107 105 100 100 94 90 65 49 33 48 65 72 37 28 38 42 40 40 31 16 2 340 0 26 12 355 344 327 311
157 155 145 138 140 130 108 132 138 168 198 175 141 120 112 99 108 97 92 81 69 44 26 88 103 85 44 28 32 36 24 19 8 7 11 37 42 20 18 354 331 316 303
151 152 148 140 134 148 134 124 186 178 185 186 149 126 116 121 124 118 112 88 73 76 78 81 87 87 70 37 36 22 13 2 343 340 341 338 337 331 351 329 306 299 296
156 153 151 156 155 159 141 166 188 191 167 164 121 114 117 118 113 111 94 106 93 90 88 102 92 80 69 46 37 25 15 347 322 315 325 328 329 330 322 312 284 273 304
127 150 151 160 147 154 172 173 172 140 149 140 122 117 125 121 112 117 111 108 123 104 107 121 105 74 47 38 23 18 17 15 334 325 323 322 327 327 328 338 308 288 292
126 121 131 128 142 165 164 147 164 148 137 129 132 136 130 122 130 138 142 122 102 118 124 118 92 64 31 25 9 3 7 11 14 332 328 335 11 6 20 13 7 9 4
141 135 136 146 140 147 145 133 159 144 150 132 130 123 121 132 145 125 142 131 130 121 116 96 75 45 22 19 7 5 -0 5 22 20 39 43 33 37 19 17 19 20 12
144 143 147 147 153 147 145 145 155 137 121 122 133 136 143 155 143 80 54 173 212 174 145 129 113 81 24 22 4 22 2 355 16 56 49 43 38 30 23 18 16 14 8
147 141 140 146 148 153 150 142 138 137 138 137 142 153 155 148 162 167 161 42 22 163 127 135 132 137 184 233 70 27 21 9 8 50 51 49 39 39 26 21 17 17 9